Regional Weather Roundup
Issued by NWS Tiyan, Guam

Home | Current Version | Previous Version | Text Only | Print | Product List | Glossary On
Versions: 1 2 3 4 5 6 7 8 9 10 11 12 13 14 15 16 17 18 19 20 21 22 23 24 25 26 27
000
ASGM40 PGUM 240912
RWRGUM
WEATHER ROUNDUP FOR THE MARIANAS
NATIONAL WEATHER SERVICE TIYAN GU
700 PM CHST TUE JAN 24 2017

GUZ001>004-241000-
MARIANA ISLANDS-

CITY           SKY/WX    TMP DP  RH WIND       PRES   REMARKS
GUAM AIRPORT   CLEAR     79  73  83 NE12      29.97R
ANDERSEN AFB   PTCLDY    77  72  83 NE21      29.98R
ROTA AIRPORT   MOCLDY    73  70  88 NE17G25   29.99R
TINIAN AP      PTCLDY    77  70  78 NE16      29.97R
SAIPAN AP      PTCLDY    77  70  78 N18G26    29.98R

$$





USA.gov is the U.S. government's official web portal to all federal, state and local government web resources and services.